Regional Weather Roundup
Issued by NWS Albany, NY

Home | Current Version | Previous Version | Graphics & Text | Print | Product List | Glossary On
Versions: 1 2 3 4 5 6 7 8 9 10 11 12 13 14 15 16 17 18 19 20 21 22 23 24 25 26 27 28 29 30 31 32 33 34 35 36 37 38 39 40 41 42 43 44 45 46 47 48 49 50
000
ASUS41 KALY 251210
RWRALY

NEW YORK STATE HOURLY WEATHER ROUNDUP
NATIONAL WEATHER SERVICE ALBANY NY
700 AM EST SUN JAN 25 2015

NOTE: "FAIR" INDICATES FEW OR NO CLOUDS BELOW 12,000 FEET WITH NO
SIGNIFICANT WEATHER AND/OR NO OBSTRUCTIONS TO VISIBILITY.

NYZ032-033-038>043-046>054-057>066-NYZ062>081-251300-
EAST


CITY           SKY/WX    TMP DP  RH WIND       PRES   REMARKS
ALBANY         MOCLDY    32  18  56 W22G41    29.59R WCI  19
GLENS FALLS    CLOUDY    34  22  61 SW6       29.50R WCI  29
POUGHKEEPSIE   CLOUDY    35  26  69 SW9       29.59R WCI  28
NEWBURGH       CLOUDY    34  27  75 W12       29.60R WCI  25
MONTGOMERY     CLOUDY    33  26  75 S5        29.59R WCI  29
WHITE PLAINS   MOCLDY    33  24  69 W6        29.60R WCI  28
ISLIP          MOCLDY    33  25  72 SW13      29.62R WCI  24
NEW YORK CITY  MOCLDY    36  25  64 SW12G20   29.65R WCI  28
CENTRAL PARK   CLOUDY    36  24  62 W12G20    29.67R WCI  28
$$

NYZ005>009-017-018-044>046-055-056-251300-
CENTRAL


CITY           SKY/WX    TMP DP  RH WIND       PRES   REMARKS
FULTON         CLOUDY    20   9  62 NW17      29.74R WCI   5
SYRACUSE       FLURRIES  22  17  81 NW18G25   29.71R WCI   7
ROME           FLURRIES  26  18  71 NW20G32   29.67R WCI  12
ELMIRA         MOCLDY    31  18  58 NW13G18   29.69R WCI  21
BINGHAMTON     CLOUDY    27  20  75 NW18G33   29.60R WCI  14
MONTICELLO     MOCLDY    30  25  80 W14G21    29.55S WCI  20
$$

NYZ026>034-041>043-251300-
NORTH


CITY           SKY/WX    TMP DP  RH WIND       PRES   REMARKS
WATERTOWN      CLEAR     13   3  64 N9        29.77R WCI   1
FORT DRUM      NOT AVBL
MASSENA        CLEAR      7  -2  66 NW18G26   29.74R WCI -12
SARANAC LAKE   LGT SNOW   9   4  80 NW9G18    29.52R WCI  -4
PLATTSBURGH    MOCLDY    19   8  62 NW17G26   29.60R WCI   4
$$

NYZ001>004-010>016-019>021-251300-
WEST


CITY           SKY/WX    TMP DP  RH WIND       PRES   REMARKS
NIAGARA FALLS  PTCLDY    18  10  71 N14       29.82R WCI   4
BUFFALO        PTCLDY    18  11  74 N10       29.80R WCI   6
DUNKIRK        CLOUDY    25  19  78 N12       29.81R WCI  14
JAMESTOWN      CLOUDY    25  19  80 NW8       29.72R WCI  16
WELLSVILLE     CLOUDY    24  18  77 N13       29.67R WCI  12
ROCHESTER      MOCLDY    20  13  74 NW17G24   29.79R WCI   5
PENN YAN       PTCLDY    24  14  65 NW16G25   29.73R WCI  11
$$

             KEY
       WCI = WIND CHILL INDEX
       VSB = VISIBILITY
       HX  = HEAT INDEX
$$


USA.gov is the U.S. government's official web portal to all federal, state and local government web resources and services.